Year,Month,Day,Hour,Minute,Value (Times are PST for temperature in C)
2013,08,16,00,00,15.80
2013,08,16,00,01,15.80
2013,08,16,00,02,15.80
2013,08,16,00,03,15.80
2013,08,16,00,04,15.80
2013,08,16,00,05,15.80
2013,08,16,00,06,15.80
2013,08,16,00,07,15.70
2013,08,16,00,08,15.70
2013,08,16,00,09,15.70
2013,08,16,00,10,15.60
2013,08,16,00,11,15.60
2013,08,16,00,12,15.60
2013,08,16,00,13,15.60
2013,08,16,00,16,15.50
2013,08,16,00,17,15.50
2013,08,16,00,18,15.50
2013,08,16,00,19,15.50
2013,08,16,00,20,15.50
2013,08,16,00,21,15.50
2013,08,16,00,22,15.50
2013,08,16,00,23,15.50
2013,08,16,00,24,15.40
2013,08,16,00,25,15.40
2013,08,16,00,26,15.40
2013,08,16,00,27,15.40
2013,08,16,00,28,15.30
2013,08,16,00,29,15.30
2013,08,16,00,30,15.30
2013,08,16,00,31,15.30
2013,08,16,00,32,15.30
2013,08,16,00,33,15.30
2013,08,16,00,34,15.30
2013,08,16,00,35,15.30
2013,08,16,00,36,15.30
2013,08,16,00,37,15.30
2013,08,16,00,38,15.30
2013,08,16,00,39,15.30
2013,08,16,00,40,15.30
2013,08,16,00,41,15.20
2013,08,16,00,42,15.20
2013,08,16,00,43,15.10
2013,08,16,00,44,15.10
2013,08,16,00,45,15.10
2013,08,16,00,46,15.10
2013,08,16,00,47,15.00
2013,08,16,00,48,15.00
2013,08,16,00,49,15.00
2013,08,16,00,50,15.00
2013,08,16,00,51,15.00
2013,08,16,00,52,15.00
2013,08,16,00,53,15.00
2013,08,16,00,54,15.00
2013,08,16,00,55,15.00
2013,08,16,00,56,15.00
2013,08,16,00,57,15.00
2013,08,16,00,58,15.00
2013,08,16,00,59,14.90
2013,08,16,01,00,14.90
2013,08,16,01,01,14.90
2013,08,16,01,02,14.90
2013,08,16,01,03,14.90
2013,08,16,01,04,14.80
2013,08,16,01,05,14.80
2013,08,16,01,06,14.80
2013,08,16,01,07,14.80
2013,08,16,01,08,14.80
2013,08,16,01,09,14.80
2013,08,16,01,10,14.80
2013,08,16,01,11,14.80
2013,08,16,01,12,14.70
2013,08,16,01,13,14.70
2013,08,16,01,14,14.70
2013,08,16,01,15,14.70
2013,08,16,01,16,14.60
2013,08,16,01,17,14.60
2013,08,16,01,18,14.60
2013,08,16,01,19,14.60
2013,08,16,01,20,14.60
2013,08,16,01,21,14.50
2013,08,16,01,22,14.50
2013,08,16,01,23,14.50
2013,08,16,01,24,14.50
2013,08,16,01,25,14.50
2013,08,16,01,26,14.50
2013,08,16,01,27,14.50
2013,08,16,01,28,14.50
2013,08,16,01,29,14.50
2013,08,16,01,30,14.50
2013,08,16,01,31,14.50
2013,08,16,01,32,14.40
2013,08,16,01,33,14.40
2013,08,16,01,34,14.40
2013,08,16,01,35,14.40
2013,08,16,01,36,14.30
2013,08,16,01,37,14.30
2013,08,16,01,38,14.30
2013,08,16,01,39,14.20
2013,08,16,01,40,14.20
2013,08,16,01,41,14.20
2013,08,16,01,42,14.20
2013,08,16,01,43,14.20
2013,08,16,01,44,14.20
2013,08,16,01,45,14.20
2013,08,16,01,46,14.20
2013,08,16,01,47,14.20
2013,08,16,01,48,14.10
2013,08,16,01,49,14.10
2013,08,16,01,50,14.10
2013,08,16,01,51,14.10
2013,08,16,01,52,14.00
2013,08,16,01,53,14.00
2013,08,16,01,54,14.00
2013,08,16,01,55,14.00
2013,08,16,01,56,14.00
2013,08,16,01,57,13.90
2013,08,16,01,58,13.90
2013,08,16,01,59,13.90
2013,08,16,02,00,13.90
2013,08,16,02,01,13.90
2013,08,16,02,02,13.80
2013,08,16,02,03,13.80
2013,08,16,02,04,13.80
2013,08,16,02,05,13.80
2013,08,16,02,06,13.80
2013,08,16,02,07,13.80
2013,08,16,02,08,13.80
2013,08,16,02,09,13.80
2013,08,16,02,10,13.80
2013,08,16,02,11,13.80
2013,08,16,02,12,13.80
2013,08,16,02,13,13.80
2013,08,16,02,14,13.80
2013,08,16,02,15,13.80
2013,08,16,02,16,13.80
2013,08,16,02,17,13.80
2013,08,16,02,18,13.80
2013,08,16,02,19,13.80
2013,08,16,02,20,13.70
2013,08,16,02,21,13.70
2013,08,16,02,22,13.70
2013,08,16,02,23,13.70
2013,08,16,02,24,13.70
2013,08,16,02,25,13.70
2013,08,16,02,26,13.70
2013,08,16,02,27,13.70
2013,08,16,02,28,13.70
2013,08,16,02,29,13.70
2013,08,16,02,30,13.70
2013,08,16,02,31,13.70
2013,08,16,02,32,13.70
2013,08,16,02,33,13.70
2013,08,16,02,34,13.70
2013,08,16,02,35,13.70
2013,08,16,02,36,13.70
2013,08,16,02,37,13.70
2013,08,16,02,38,13.70
2013,08,16,02,39,13.70
2013,08,16,02,40,13.70
2013,08,16,02,41,13.70
2013,08,16,02,42,13.70
2013,08,16,02,43,13.70
2013,08,16,02,44,13.70
2013,08,16,02,45,13.70
2013,08,16,02,46,13.70
2013,08,16,02,47,13.70
2013,08,16,02,48,13.70
2013,08,16,02,49,13.70
2013,08,16,02,50,13.70
2013,08,16,02,51,13.70
2013,08,16,02,52,13.70
2013,08,16,02,53,13.70
2013,08,16,02,54,13.70
2013,08,16,02,55,13.70
2013,08,16,02,56,13.70
2013,08,16,02,57,13.70
2013,08,16,02,58,13.70
2013,08,16,02,59,13.70
2013,08,16,03,00,13.70
2013,08,16,03,01,13.70
2013,08,16,03,02,13.70
2013,08,16,03,03,13.60
2013,08,16,03,04,13.60
2013,08,16,03,05,13.60
2013,08,16,03,06,13.60
2013,08,16,03,07,13.60
2013,08,16,03,08,13.60
2013,08,16,03,09,13.50
2013,08,16,03,10,13.50
2013,08,16,03,11,13.50
2013,08,16,03,12,13.50
2013,08,16,03,13,13.50
2013,08,16,03,14,13.50
2013,08,16,03,15,13.50
2013,08,16,03,16,13.50
2013,08,16,03,17,13.50
2013,08,16,03,18,13.40
2013,08,16,03,19,13.40
2013,08,16,03,20,13.40
2013,08,16,03,21,13.40
2013,08,16,03,22,13.40
2013,08,16,03,23,13.30
2013,08,16,03,24,13.30
2013,08,16,03,25,13.30
2013,08,16,03,26,13.30
2013,08,16,03,27,13.30
2013,08,16,03,28,13.30
2013,08,16,03,29,13.30
2013,08,16,03,30,13.30
2013,08,16,03,31,13.30
2013,08,16,03,32,13.30
2013,08,16,03,33,13.30
2013,08,16,03,34,13.30
2013,08,16,03,35,13.30
2013,08,16,03,36,13.30
2013,08,16,03,37,13.30
2013,08,16,03,38,13.30
2013,08,16,03,39,13.30
2013,08,16,03,40,13.30
2013,08,16,03,41,13.30
2013,08,16,03,42,13.30
2013,08,16,03,43,13.30
2013,08,16,03,44,13.30
2013,08,16,03,45,13.30
2013,08,16,03,46,13.30
2013,08,16,03,47,13.20
2013,08,16,03,48,13.20
2013,08,16,03,49,13.20
2013,08,16,03,50,13.20
2013,08,16,03,51,13.20
2013,08,16,03,52,13.10
2013,08,16,03,53,13.10
2013,08,16,03,54,13.10
2013,08,16,03,55,13.10
2013,08,16,03,56,13.00
2013,08,16,03,57,13.00
2013,08,16,03,58,13.00
2013,08,16,03,59,13.00
2013,08,16,04,00,13.00
2013,08,16,04,01,13.10
2013,08,16,04,02,13.10
2013,08,16,04,03,13.10
2013,08,16,04,04,13.10
2013,08,16,04,05,13.10
2013,08,16,04,06,13.10
2013,08,16,04,07,13.00
2013,08,16,04,08,13.00
2013,08,16,04,09,13.00
2013,08,16,04,10,13.00
2013,08,16,04,11,13.00
2013,08,16,04,12,13.00
2013,08,16,04,13,13.00
2013,08,16,04,14,13.00
2013,08,16,04,15,13.00
2013,08,16,04,16,13.00
2013,08,16,04,17,13.00
2013,08,16,04,18,13.00
2013,08,16,04,19,13.00
2013,08,16,04,20,12.90
2013,08,16,04,21,12.90
2013,08,16,04,22,12.90
2013,08,16,04,23,12.80
2013,08,16,04,24,12.80
2013,08,16,04,25,12.80
2013,08,16,04,26,12.80
2013,08,16,04,27,12.80
2013,08,16,04,28,12.80
2013,08,16,04,29,12.80
2013,08,16,04,30,12.70
2013,08,16,04,31,12.70
2013,08,16,04,32,12.70
2013,08,16,04,33,12.70
2013,08,16,04,34,12.70
2013,08,16,04,35,12.60
2013,08,16,04,36,12.60
2013,08,16,04,37,12.70
2013,08,16,04,38,12.70
2013,08,16,04,39,12.70
2013,08,16,04,40,12.70
2013,08,16,04,41,12.60
2013,08,16,04,42,12.60
2013,08,16,04,43,12.60
2013,08,16,04,44,12.60
2013,08,16,04,45,12.60
2013,08,16,04,46,12.60
2013,08,16,04,47,12.70
2013,08,16,04,48,12.70
2013,08,16,04,49,12.70
2013,08,16,04,50,12.70
2013,08,16,04,51,12.70
2013,08,16,04,52,12.70
2013,08,16,04,53,12.70
2013,08,16,04,54,12.70
2013,08,16,04,55,12.70
2013,08,16,04,56,12.70
2013,08,16,04,57,12.60
2013,08,16,04,58,12.60
2013,08,16,04,59,12.60
2013,08,16,05,00,12.60
2013,08,16,05,01,12.60
2013,08,16,05,02,12.60
2013,08,16,05,03,12.60
2013,08,16,05,04,12.60
2013,08,16,05,05,12.60
2013,08,16,05,06,12.60
2013,08,16,05,07,12.60
2013,08,16,05,08,12.50
2013,08,16,05,09,12.50
2013,08,16,05,10,12.50
2013,08,16,05,11,12.50
2013,08,16,05,12,12.50
2013,08,16,05,13,12.50
2013,08,16,05,14,12.50
2013,08,16,05,15,12.50
2013,08,16,05,16,12.50
2013,08,16,05,17,12.50
2013,08,16,05,18,12.50
2013,08,16,05,19,12.50
2013,08,16,05,20,12.50
2013,08,16,05,21,12.50
2013,08,16,05,22,12.50
2013,08,16,05,23,12.40
2013,08,16,05,24,12.40
2013,08,16,05,25,12.40
2013,08,16,05,26,12.40
2013,08,16,05,27,12.30
2013,08,16,05,28,12.30
2013,08,16,05,29,12.30
2013,08,16,05,30,12.30
2013,08,16,05,31,12.30
2013,08,16,05,32,12.30
2013,08,16,05,33,12.30
2013,08,16,05,34,12.30
2013,08,16,05,35,12.30
2013,08,16,05,36,12.30
2013,08,16,05,37,12.30
2013,08,16,05,38,12.30
2013,08,16,05,39,12.30
2013,08,16,05,40,12.30
2013,08,16,05,41,12.30
2013,08,16,05,42,12.30
2013,08,16,05,43,12.30
2013,08,16,05,44,12.30
2013,08,16,05,45,12.30
2013,08,16,05,46,12.20
2013,08,16,05,47,12.20
2013,08,16,05,48,12.20
2013,08,16,05,49,12.20
2013,08,16,05,50,12.30
2013,08,16,05,51,12.30
2013,08,16,05,52,12.30
2013,08,16,05,53,12.30
2013,08,16,05,54,12.30
2013,08,16,05,55,12.30
2013,08,16,05,56,12.30
2013,08,16,05,57,12.30
2013,08,16,05,58,12.30
2013,08,16,05,59,12.20
2013,08,16,06,00,12.20
2013,08,16,06,01,12.20
2013,08,16,06,02,12.20
2013,08,16,06,03,12.20
2013,08,16,06,04,12.20
2013,08,16,06,05,12.20
2013,08,16,06,06,12.20
2013,08,16,06,07,12.20
2013,08,16,06,08,12.20
2013,08,16,06,09,12.30
2013,08,16,06,10,12.20
2013,08,16,06,11,12.20
2013,08,16,06,12,12.20
2013,08,16,06,13,12.30
2013,08,16,06,14,12.30
2013,08,16,06,15,12.20
2013,08,16,06,16,12.20
2013,08,16,06,17,12.20
2013,08,16,06,18,12.20
2013,08,16,06,19,12.20
2013,08,16,06,20,12.20
2013,08,16,06,21,12.10
2013,08,16,06,22,12.10
2013,08,16,06,23,12.10
2013,08,16,06,24,12.10
2013,08,16,06,25,12.10
2013,08,16,06,26,12.10
2013,08,16,06,27,12.10
2013,08,16,06,28,12.10
2013,08,16,06,29,12.10
2013,08,16,06,30,12.00
2013,08,16,06,31,12.00
2013,08,16,06,32,12.00
2013,08,16,06,33,12.00
2013,08,16,06,34,12.00
2013,08,16,06,35,12.00
2013,08,16,06,36,12.00
2013,08,16,06,37,12.10
2013,08,16,06,38,12.00
2013,08,16,06,39,12.00
2013,08,16,06,40,12.00
2013,08,16,06,41,12.00
2013,08,16,06,42,12.00
2013,08,16,06,43,12.00
2013,08,16,06,44,12.00
2013,08,16,06,45,12.00
2013,08,16,06,46,12.00
2013,08,16,06,47,12.00
2013,08,16,06,48,12.00
2013,08,16,06,49,12.00
2013,08,16,06,50,12.00
2013,08,16,06,51,12.00
2013,08,16,06,52,12.10
2013,08,16,06,53,12.10
2013,08,16,06,54,12.20
2013,08,16,06,55,12.30
2013,08,16,06,56,12.30
2013,08,16,06,57,12.40
2013,08,16,06,58,12.40
2013,08,16,06,59,12.50
2013,08,16,07,00,12.50
2013,08,16,07,01,12.50
2013,08,16,07,02,12.50
2013,08,16,07,03,12.50
2013,08,16,07,04,12.60
2013,08,16,07,05,12.60
2013,08,16,07,06,12.60
2013,08,16,07,07,12.60
2013,08,16,07,08,12.60
2013,08,16,07,09,12.70
2013,08,16,07,10,12.70
2013,08,16,07,11,12.70
2013,08,16,07,12,12.70
2013,08,16,07,13,12.70
2013,08,16,07,14,12.70
2013,08,16,07,15,12.70
2013,08,16,07,16,12.70
2013,08,16,07,17,12.70
2013,08,16,07,18,12.70
2013,08,16,07,19,12.80
2013,08,16,07,20,12.80
2013,08,16,07,21,12.80
2013,08,16,07,22,12.80
2013,08,16,07,23,12.80
2013,08,16,07,24,12.80
2013,08,16,07,25,12.80
2013,08,16,07,26,12.80
2013,08,16,07,27,12.80
2013,08,16,07,28,12.80
2013,08,16,07,29,12.80
2013,08,16,07,30,12.80
2013,08,16,07,31,12.80
2013,08,16,07,32,12.70
2013,08,16,07,33,12.70
2013,08,16,07,34,12.70
2013,08,16,07,35,12.60
2013,08,16,07,36,12.60
2013,08,16,07,37,12.50
2013,08,16,07,38,12.50
2013,08,16,07,39,12.50
2013,08,16,07,40,12.50
2013,08,16,07,41,12.50
2013,08,16,07,42,12.50
2013,08,16,07,43,12.60
2013,08,16,07,44,12.60
2013,08,16,07,45,12.70
2013,08,16,07,46,12.70
2013,08,16,07,47,12.80
2013,08,16,07,48,12.80
2013,08,16,07,49,12.80
2013,08,16,07,50,12.90
2013,08,16,07,51,12.90
2013,08,16,07,52,13.00
2013,08,16,07,53,13.00
2013,08,16,07,54,13.00
2013,08,16,07,55,13.10
2013,08,16,07,56,13.10
2013,08,16,07,57,13.20
2013,08,16,07,58,13.20
2013,08,16,07,59,13.30
2013,08,16,08,00,13.30
2013,08,16,08,01,13.30
2013,08,16,08,02,13.40
2013,08,16,08,03,13.40
2013,08,16,08,04,13.40
2013,08,16,08,05,13.50
2013,08,16,08,06,13.50
2013,08,16,08,07,13.50
2013,08,16,08,08,13.40
2013,08,16,08,09,13.40
2013,08,16,08,10,13.30
2013,08,16,08,11,13.30
2013,08,16,08,12,13.30
2013,08,16,08,13,13.30
2013,08,16,08,14,13.30
2013,08,16,08,15,13.30
2013,08,16,08,16,13.30
2013,08,16,08,17,13.30
2013,08,16,08,18,13.30
2013,08,16,08,19,13.30
2013,08,16,08,20,13.30
2013,08,16,08,21,13.30
2013,08,16,08,22,13.30
2013,08,16,08,23,13.30
2013,08,16,08,24,13.30
2013,08,16,08,25,13.30
2013,08,16,08,26,13.30
2013,08,16,08,27,13.30
2013,08,16,08,28,13.40
2013,08,16,08,29,13.40
2013,08,16,08,30,13.40
2013,08,16,08,31,13.40
2013,08,16,08,32,13.50
2013,08,16,08,33,13.50
2013,08,16,08,34,13.60
2013,08,16,08,35,13.60
2013,08,16,08,36,13.60
2013,08,16,08,37,13.70
2013,08,16,08,38,13.70
2013,08,16,08,39,13.70
2013,08,16,08,40,13.70
2013,08,16,08,41,13.80
2013,08,16,08,42,13.80
2013,08,16,08,43,13.90
2013,08,16,08,44,13.90
2013,08,16,08,45,14.00
2013,08,16,08,46,14.00
2013,08,16,08,47,14.00
2013,08,16,08,48,14.10
2013,08,16,08,49,14.10
2013,08,16,08,50,14.10
2013,08,16,08,51,14.20
2013,08,16,08,52,14.20
2013,08,16,08,53,14.20
2013,08,16,08,54,14.20
2013,08,16,08,55,14.30
2013,08,16,08,56,14.30
2013,08,16,08,57,14.40
2013,08,16,08,58,14.50
2013,08,16,08,59,14.50
2013,08,16,09,00,14.50
2013,08,16,09,01,14.60
2013,08,16,09,02,14.60
2013,08,16,09,03,14.70
2013,08,16,09,04,14.70
2013,08,16,09,05,14.80
2013,08,16,09,06,14.80
2013,08,16,09,07,14.80
2013,08,16,09,08,14.90
2013,08,16,09,09,14.90
2013,08,16,09,10,15.00
2013,08,16,09,11,15.00
2013,08,16,09,12,15.10
2013,08,16,09,13,15.10
2013,08,16,09,14,15.20
2013,08,16,09,15,15.20
2013,08,16,09,16,15.20
2013,08,16,09,17,15.20
2013,08,16,09,18,15.20
2013,08,16,09,19,15.20
2013,08,16,09,20,15.20
2013,08,16,09,21,15.20
2013,08,16,09,22,15.30
2013,08,16,09,23,15.30
2013,08,16,09,24,15.30
2013,08,16,09,25,15.30
2013,08,16,09,26,15.30
2013,08,16,09,27,15.30
2013,08,16,09,28,15.30
2013,08,16,09,29,15.30
2013,08,16,09,30,15.30
2013,08,16,09,31,15.30
2013,08,16,09,32,15.30
2013,08,16,09,33,15.30
2013,08,16,09,34,15.30
2013,08,16,09,35,15.30
2013,08,16,09,36,15.30
2013,08,16,09,37,15.30
2013,08,16,09,38,15.30
2013,08,16,09,39,15.30
2013,08,16,09,40,15.30
2013,08,16,09,41,15.30
2013,08,16,09,42,15.30
2013,08,16,09,43,15.30
2013,08,16,09,44,15.30
2013,08,16,09,45,15.30
2013,08,16,09,46,15.30
2013,08,16,09,47,15.30
2013,08,16,09,48,15.40
2013,08,16,09,49,15.40
2013,08,16,09,50,15.50
2013,08,16,09,51,15.50
2013,08,16,09,52,15.50
2013,08,16,09,53,15.50
2013,08,16,09,54,15.50
2013,08,16,09,55,15.50
2013,08,16,09,56,15.50
2013,08,16,09,57,15.50
2013,08,16,09,58,15.50
2013,08,16,09,59,15.50
2013,08,16,10,00,15.50
2013,08,16,10,01,15.50
2013,08,16,10,02,15.50
2013,08,16,10,03,15.50
2013,08,16,10,04,15.60
2013,08,16,10,05,15.60
2013,08,16,10,06,15.70
2013,08,16,10,07,15.70
2013,08,16,10,08,15.70
2013,08,16,10,09,15.70
2013,08,16,10,10,15.70
2013,08,16,10,11,15.70
2013,08,16,10,12,15.70
2013,08,16,10,13,15.70
2013,08,16,10,14,15.70
2013,08,16,10,15,15.70
2013,08,16,10,16,15.70
2013,08,16,10,17,15.80
2013,08,16,10,18,15.80
2013,08,16,10,19,15.80
2013,08,16,10,20,15.90
2013,08,16,10,21,15.90
2013,08,16,10,22,16.00
2013,08,16,10,23,16.10
2013,08,16,10,24,16.10
2013,08,16,10,25,16.10
2013,08,16,10,26,16.20
2013,08,16,10,27,16.20
2013,08,16,10,28,16.30
2013,08,16,10,29,16.30
2013,08,16,10,30,16.40
2013,08,16,10,31,16.40
2013,08,16,10,32,16.40
2013,08,16,10,33,16.40
2013,08,16,10,34,16.40
2013,08,16,10,35,16.60
2013,08,16,10,36,16.60
2013,08,16,10,37,16.70
2013,08,16,10,38,16.70
2013,08,16,10,39,16.70
2013,08,16,10,40,16.70
2013,08,16,10,41,16.70
2013,08,16,10,42,16.70
2013,08,16,10,43,16.70
2013,08,16,10,44,16.80
2013,08,16,10,45,16.70
2013,08,16,10,46,16.70
2013,08,16,10,47,16.80
2013,08,16,10,48,16.80
2013,08,16,10,49,16.80
2013,08,16,10,50,16.90
2013,08,16,10,51,16.90
2013,08,16,10,52,16.90
2013,08,16,10,53,17.00
2013,08,16,10,54,17.00
2013,08,16,10,55,17.00
2013,08,16,10,56,17.00
2013,08,16,10,57,17.00
2013,08,16,10,58,17.00
2013,08,16,10,59,17.00
2013,08,16,11,00,17.10
2013,08,16,11,01,17.10
2013,08,16,11,02,17.20
2013,08,16,11,03,17.20
2013,08,16,11,04,17.20
2013,08,16,11,05,17.30
2013,08,16,11,06,17.30
2013,08,16,11,07,17.30
2013,08,16,11,08,17.30
2013,08,16,11,09,17.30
2013,08,16,11,10,17.30
2013,08,16,11,11,17.30
2013,08,16,11,12,17.30
2013,08,16,11,13,17.30
2013,08,16,11,14,17.40
2013,08,16,11,15,17.40
2013,08,16,11,16,17.50
2013,08,16,11,17,17.50
2013,08,16,11,18,17.50
2013,08,16,11,19,17.50
2013,08,16,11,20,17.60
2013,08,16,11,21,17.60
2013,08,16,11,22,17.50
2013,08,16,11,23,17.50
2013,08,16,11,24,17.60
2013,08,16,11,25,17.50
2013,08,16,11,26,17.50
2013,08,16,11,27,17.60
2013,08,16,11,28,17.60
2013,08,16,11,29,17.70
2013,08,16,11,30,17.70
2013,08,16,11,31,17.70
2013,08,16,11,32,17.80
2013,08,16,11,33,17.90
2013,08,16,11,34,18.00
2013,08,16,11,35,18.10
2013,08,16,11,36,18.20
2013,08,16,11,37,18.20
2013,08,16,11,38,18.30
2013,08,16,11,39,18.20
2013,08,16,11,40,18.20
2013,08,16,11,41,18.20
2013,08,16,11,42,18.20
2013,08,16,11,43,18.30
2013,08,16,11,44,18.30
2013,08,16,11,45,18.40
2013,08,16,11,46,18.50
2013,08,16,11,47,18.60
2013,08,16,11,48,18.70
2013,08,16,11,49,18.80
2013,08,16,11,50,18.90
2013,08,16,11,51,18.90
2013,08,16,11,52,19.00
2013,08,16,11,53,19.10
2013,08,16,11,54,19.10
2013,08,16,11,55,19.10
2013,08,16,11,56,19.10
2013,08,16,11,57,19.10
2013,08,16,11,58,19.10
2013,08,16,11,59,19.10
2013,08,16,12,00,19.10
2013,08,16,12,01,19.10
2013,08,16,12,02,19.10
2013,08,16,12,03,19.00
2013,08,16,12,04,18.90
2013,08,16,12,05,18.90
2013,08,16,12,06,18.80
2013,08,16,12,07,18.70
2013,08,16,12,08,18.70
2013,08,16,12,09,18.70
2013,08,16,12,10,18.70
2013,08,16,12,11,18.70
2013,08,16,12,12,18.80
2013,08,16,12,13,18.80
2013,08,16,12,14,18.70
2013,08,16,12,15,18.70
2013,08,16,12,16,18.70
2013,08,16,12,17,18.60
2013,08,16,12,18,18.70
2013,08,16,12,19,18.70
2013,08,16,12,20,18.70
2013,08,16,12,21,18.70
2013,08,16,12,22,18.60
2013,08,16,12,23,18.60
2013,08,16,12,24,18.60
2013,08,16,12,25,18.60
2013,08,16,12,26,18.50
2013,08,16,12,27,18.50
2013,08,16,12,28,18.60
2013,08,16,12,29,18.60
2013,08,16,12,30,18.60
2013,08,16,12,31,18.60
2013,08,16,12,32,18.60
2013,08,16,12,33,18.60
2013,08,16,12,34,18.60
2013,08,16,12,35,18.60
2013,08,16,12,36,18.60
2013,08,16,12,37,18.50
2013,08,16,12,38,18.40
2013,08,16,12,39,18.30
2013,08,16,12,40,18.30
2013,08,16,12,41,18.30
2013,08,16,12,42,18.20
2013,08,16,12,43,18.20
2013,08,16,12,44,18.20
2013,08,16,12,45,18.20
2013,08,16,12,46,18.20
2013,08,16,12,47,18.20
2013,08,16,12,48,18.20
2013,08,16,12,49,18.30
2013,08,16,12,50,18.40
2013,08,16,12,51,18.50
2013,08,16,12,52,18.50
2013,08,16,12,53,18.50
2013,08,16,12,54,18.60
2013,08,16,12,55,18.70
2013,08,16,12,56,18.70
2013,08,16,12,57,18.80
2013,08,16,12,58,18.90
2013,08,16,12,59,18.90
2013,08,16,13,00,19.00
2013,08,16,13,01,19.10
2013,08,16,13,02,19.10
2013,08,16,13,03,19.10
2013,08,16,13,04,19.10
2013,08,16,13,05,19.20
2013,08,16,13,06,19.30
2013,08,16,13,07,19.40
2013,08,16,13,08,19.40
2013,08,16,13,09,19.50
2013,08,16,13,10,19.50
2013,08,16,13,11,19.50
2013,08,16,13,12,19.60
2013,08,16,13,13,19.60
2013,08,16,13,14,19.50
2013,08,16,13,15,19.40
2013,08,16,13,16,19.30
2013,08,16,13,17,19.30
2013,08,16,13,18,19.10
2013,08,16,13,19,19.10
2013,08,16,13,20,19.10
2013,08,16,13,21,19.10
2013,08,16,13,22,19.10
2013,08,16,13,23,19.10
2013,08,16,13,24,19.10
2013,08,16,13,25,19.10
2013,08,16,13,26,19.10
2013,08,16,13,27,19.10
2013,08,16,13,28,19.10
2013,08,16,13,29,19.10
2013,08,16,13,30,19.20
2013,08,16,13,31,19.20
2013,08,16,13,32,19.20
2013,08,16,13,33,19.30
2013,08,16,13,34,19.30
2013,08,16,13,35,19.30
2013,08,16,13,36,19.30
2013,08,16,13,37,19.40
2013,08,16,13,38,19.50
2013,08,16,13,39,19.60
2013,08,16,13,40,19.60
2013,08,16,13,41,19.60
2013,08,16,13,42,19.70
2013,08,16,13,43,19.70
2013,08,16,13,44,19.80
2013,08,16,13,45,19.90
2013,08,16,13,46,19.90
2013,08,16,13,47,19.90
2013,08,16,13,48,19.90
2013,08,16,13,49,19.90
2013,08,16,13,50,20.00
2013,08,16,13,51,20.20
2013,08,16,13,52,20.30
2013,08,16,13,53,20.40
2013,08,16,13,54,20.50
2013,08,16,13,55,20.50
2013,08,16,13,56,20.60
2013,08,16,13,57,20.70
2013,08,16,13,58,20.80
2013,08,16,13,59,20.90
2013,08,16,14,00,21.00
2013,08,16,14,01,21.10
2013,08,16,14,02,21.20
2013,08,16,14,03,21.10
2013,08,16,14,04,21.00
2013,08,16,14,05,20.90
2013,08,16,14,06,20.90
2013,08,16,14,07,20.80
2013,08,16,14,08,20.80
2013,08,16,14,09,20.60
2013,08,16,14,10,20.60
2013,08,16,14,11,20.60
2013,08,16,14,12,20.70
2013,08,16,14,13,20.70
2013,08,16,14,14,20.80
2013,08,16,14,15,20.90
2013,08,16,14,16,20.90
2013,08,16,14,17,21.00
2013,08,16,14,18,20.90
2013,08,16,14,19,20.80
2013,08,16,14,20,20.80
2013,08,16,14,21,20.70
2013,08,16,14,22,20.70
2013,08,16,14,23,20.70
2013,08,16,14,24,20.70
2013,08,16,14,25,20.70
2013,08,16,14,26,20.70
2013,08,16,14,27,20.70
2013,08,16,14,28,20.70
2013,08,16,14,29,20.60
2013,08,16,14,30,20.60
2013,08,16,14,31,20.60
2013,08,16,14,32,20.70
2013,08,16,14,33,20.70
2013,08,16,14,34,20.70
2013,08,16,14,35,20.70
2013,08,16,14,36,20.70
2013,08,16,14,37,20.80
2013,08,16,14,38,21.00
2013,08,16,14,39,21.10
2013,08,16,14,40,21.20
2013,08,16,14,41,21.20
2013,08,16,14,42,21.10
2013,08,16,14,43,21.10
2013,08,16,14,44,21.20
2013,08,16,14,45,21.20
2013,08,16,14,46,21.30
2013,08,16,14,47,21.30
2013,08,16,14,48,21.40
2013,08,16,14,49,21.60
2013,08,16,14,50,21.60
2013,08,16,14,51,21.60
2013,08,16,14,52,21.50
2013,08,16,14,53,21.40
2013,08,16,14,54,21.30
2013,08,16,14,55,21.10
2013,08,16,14,56,21.00
2013,08,16,14,57,20.90
2013,08,16,14,58,20.80
2013,08,16,14,59,20.60
2013,08,16,15,00,20.50
2013,08,16,15,01,20.50
2013,08,16,15,02,20.70
2013,08,16,15,03,20.80
2013,08,16,15,04,20.80
2013,08,16,15,05,20.80
2013,08,16,15,06,20.80
2013,08,16,15,07,20.70
2013,08,16,15,08,20.60
2013,08,16,15,09,20.50
2013,08,16,15,10,20.50
2013,08,16,15,11,20.50
2013,08,16,15,12,20.50
2013,08,16,15,13,20.50
2013,08,16,15,14,20.40
2013,08,16,15,15,20.30
2013,08,16,15,16,20.20
2013,08,16,15,17,20.30
2013,08,16,15,18,20.30
2013,08,16,15,19,20.40
2013,08,16,15,20,20.40
2013,08,16,15,21,20.40
2013,08,16,15,22,20.50
2013,08,16,15,23,20.60
2013,08,16,15,24,20.70
2013,08,16,15,25,20.90
2013,08,16,15,26,21.00
2013,08,16,15,27,21.00
2013,08,16,15,28,21.00
2013,08,16,15,29,21.00
2013,08,16,15,30,20.90
2013,08,16,15,31,20.80
2013,08,16,15,32,20.90
2013,08,16,15,33,20.90
2013,08,16,15,34,21.00
2013,08,16,15,35,21.00
2013,08,16,15,36,20.90
2013,08,16,15,37,20.90
2013,08,16,15,38,20.90
2013,08,16,15,39,20.90
2013,08,16,15,40,20.90
2013,08,16,15,41,20.80
2013,08,16,15,42,20.70
2013,08,16,15,43,20.60
2013,08,16,15,44,20.50
2013,08,16,15,45,20.30
2013,08,16,15,46,20.20
2013,08,16,15,47,20.20
2013,08,16,15,48,20.20
2013,08,16,15,49,20.30
2013,08,16,15,50,20.40
2013,08,16,15,51,20.40
2013,08,16,15,52,20.40
2013,08,16,15,53,20.50
2013,08,16,15,54,20.50
2013,08,16,15,55,20.50
2013,08,16,15,56,20.50
2013,08,16,15,57,20.50
2013,08,16,15,58,20.60
2013,08,16,15,59,20.60
2013,08,16,16,00,20.60
2013,08,16,16,01,20.60
2013,08,16,16,02,20.70
2013,08,16,16,03,20.80
2013,08,16,16,04,20.90
2013,08,16,16,05,21.10
2013,08,16,16,06,21.20
2013,08,16,16,07,21.10
2013,08,16,16,08,21.10
2013,08,16,16,09,21.00
2013,08,16,16,10,21.10
2013,08,16,16,11,21.20
2013,08,16,16,12,21.30
2013,08,16,16,13,21.30
2013,08,16,16,14,21.20
2013,08,16,16,15,21.10
2013,08,16,16,16,21.00
2013,08,16,16,17,20.90
2013,08,16,16,18,20.80
2013,08,16,16,19,20.70
2013,08,16,16,20,20.50
2013,08,16,16,21,20.40
2013,08,16,16,22,20.30
2013,08,16,16,23,20.20
2013,08,16,16,24,20.20
2013,08,16,16,25,20.20
2013,08,16,16,26,20.20
2013,08,16,16,27,20.20
2013,08,16,16,28,20.20
2013,08,16,16,29,20.20
2013,08,16,16,30,20.20
2013,08,16,16,31,20.20
2013,08,16,16,32,20.20
2013,08,16,16,33,20.20
2013,08,16,16,34,20.20
2013,08,16,16,35,20.20
2013,08,16,16,36,20.10
2013,08,16,16,37,20.10
2013,08,16,16,38,20.10
2013,08,16,16,39,20.10
2013,08,16,16,40,20.10
2013,08,16,16,41,20.10
2013,08,16,16,42,20.20
2013,08,16,16,43,20.20
2013,08,16,16,44,20.20
2013,08,16,16,45,20.20
2013,08,16,16,46,20.30
2013,08,16,16,47,20.30
2013,08,16,16,48,20.40
2013,08,16,16,49,20.50
2013,08,16,16,50,20.60
2013,08,16,16,51,20.60
2013,08,16,16,52,20.60
2013,08,16,16,53,20.60
2013,08,16,16,54,20.60
2013,08,16,16,55,20.60
2013,08,16,16,56,20.60
2013,08,16,16,57,20.60
2013,08,16,16,58,20.50
2013,08,16,16,59,20.50
2013,08,16,17,00,20.40
2013,08,16,17,01,20.40
2013,08,16,17,02,20.50
2013,08,16,17,03,20.50
2013,08,16,17,04,20.60
2013,08,16,17,05,20.70
2013,08,16,17,06,20.80
2013,08,16,17,07,20.90
2013,08,16,17,08,21.00
2013,08,16,17,09,21.10
2013,08,16,17,10,21.20
2013,08,16,17,11,21.30
2013,08,16,17,12,21.30
2013,08,16,17,13,21.40
2013,08,16,17,14,21.50
2013,08,16,17,15,21.60
2013,08,16,17,16,21.70
2013,08,16,17,17,21.80
2013,08,16,17,18,22.00
2013,08,16,17,19,22.10
2013,08,16,17,20,22.20
2013,08,16,17,21,22.30